Flag for Poland Weather past 2 weeks in Olsztyn, Poland

Now
29 °F

Light snow. Overcast.


Feels Like: 26 °F
Forecast: 22 / 32 °F
Wind: 3 mph from Northwest

Location: Ketrzyn

Current Time: Jan 25, 2015 at 6:09:43 PM

Latest Report: Jan 25, 2015 at 5:00 PM


Visibility: 1 mi

Pressure: 30.16 "Hg

Humidity: 97%

Dew point: 29 °F

Location of OlsztynLocation

Historic Weather in Olsztyn — Graph

°F

Olsztyn temperature yesterday

Maximum temperature yesterday: 30 °F (at 2:00 PM)
Minimum temperature yesterday: 20 °F (at 7:00 AM)
Average temperature yesterday: 27 °F

Past Weeks' High & Low Weather Summary

 TemperatureHumidityPressure
High48 °F (Jan 14, 2:00 AM)100% (Jan 22, 4:00 AM)30.24 "Hg (Jan 22, 4:00 AM)
Low20 °F (Jan 24, 7:00 AM)62% (Jan 11, 12:00 PM)29.06 "Hg (Jan 10, 6:00 PM)
Average34 °F89%29.89 "Hg
* Reported Jan 10 4:00 PM — Jan 25 4:00 PM, Olsztyn, Weather by CustomWeather, © 2014

Note: Actual official high and low records may vary slightly from our data, if they occured in-between our weather recording intervals... More about our weather records

Advertising

Olsztyn weather history for previous 24 hours

 ConditionsComfort  
Time TempWeatherWind HumidityBarometerVisibility
4:00 PM
Jan 25
29 °FLight snow. Overcast.2 mph96%30.15 "Hg2 mi
3:00 PM29 °FLight snow. Cloudy.3 mph95%30.14 "Hg1 mi
2:00 PM29 °FLight snow. Cloudy.3 mph95%30.12 "Hg1 mi
1:00 PM29 °FLight snow. Cloudy.2 mph95%30.12 "Hg2 mi
12:00 PM29 °FFreezing rain. Cloudy.2 mph94%30.12 "Hg2 mi
11:00 AM29 °FLight snow. Cloudy.2 mph94%30.13 "Hg1 mi
10:00 AM28 °FLight snow. Cloudy.3 mph94%30.13 "Hg2 mi
9:00 AM28 °FLight snow. Cloudy.2 mph96%30.12 "Hg1 mi
8:00 AM27 °FLight snow. Cloudy.2 mph97%30.11 "Hg1 mi
7:00 AM27 °FFreezing rain. Overcast.2 mph97%30.09 "Hg1 mi
6:00 AM28 °FFreezing rain. Overcast.1 mph96%30.09 "Hg2 mi
5:00 AM28 °FFreezing rain. Overcast.1 mph96%30.08 "Hg1 mi
4:00 AM28 °FSnow flurries. Overcast.1 mph96%30.07 "Hg1 mi
3:00 AM28 °FLight snow. Overcast.1 mph96%30.08 "Hg2 mi
2:00 AM28 °FLight snow. Overcast.2 mph96%30.08 "Hg1 mi
1:00 AM28 °FHeavy snow. Overcast.2 mph96%30.09 "Hg1 mi
12:00 AM29 °FFreezing rain. Overcast.1 mph95%30.08 "Hg1 mi
11:00 PM
Jan 24
29 °FFog.1 mph94%30.08 "Hg2 mi
10:00 PM29 °FFog.1 mph92%30.09 "Hg3 mi
9:00 PM29 °FFog.1 mph92%30.09 "Hg3 mi
8:00 PM29 °FFog.2 mph91%30.09 "Hg2 mi
7:00 PM29 °FFog.1 mph91%30.10 "Hg2 mi
6:00 PM29 °FFog.1 mph90%30.11 "Hg2 mi
Weather by CustomWeather, © 2014

See weather overviewHow to use our weather pages